STARLINK-1376, 45570

Orbit data source: Space-Track

STARLINK-1376, 45570 is a payload satellite owned by SpaceX/Seattle (US) in LEO that was launched on Wed, 22 Apr 2020 UTC via an FALCON 9 launch vehicle from the Air Force Eastern Test Range (AFETR). Payload-class satellites include a variety of spacecraft equipped with specific instruments for various scientific and technological missions. These include communications satellites like Starlink; space stations such as the ISS; scientific satellites like the Hubble; Earth observation satellites from companies like Planet Labs, Umbra, and HawkEye 360; GPS; miniature CubeSats for education and research; and military/defense satellites.

Loading next visibility...
Identifier
45570, 2020-025AR
Orbit
LEO
Country
Flag of USUS
Related business
Manufacturer
SpaceX/Seattle
Mission
Partially operational Commercial Communications
Bus & Motor
STARLINK, Unknown motor
Mass
260 kg wet, ~248 kg dry
Launch date (UTC)
2020-04-22 (6 years ago)
Launch vehicle
FALCON 9
Launch site
Air Force Eastern Test Range (AFETR)
Object type
Payload
Rocket body
Debris
Shape & HBR
Box + 1 Pan, 10.1 m
Radar Cross Section
13.562 m², Large (>1 m²)

Expand to show TLE details & history
Last TLE update: 13 hours ago

TLE from 13 hours ago
0 STARLINK-1376
1 45570U 20025AR  26177.58051025  .00049313  00000-0  12154-2 0  9994
2 45570  53.1556 288.2588 0001027 233.8010 126.2900 15.40103771342228
Epoch: 2026-06-26T13:55Z
TLE epoch observation values (Epoch: 2026-06-26T13:55:56.085Z)
Latitude
-0.00004°
Longitude
164.56811°
Altitude
447.121 km
Speed
7.645 km/s
True Right ascension
19h 13m 02s
True Declination
0° 00' 00"
Sunlit
Object was in full shadow at epoch
Visualization orbit readout
Latitude
Unknown
Longitude
Unknown
Altitude
Unknown
Speed
Unknown
Apparent Right ascension
Unknown
Apparent Declination
Unknown
Sunlit
N/A
Visualization observer readout
Local Sidereal Time
14:04:23
Azimuth
Unknown
Elevation
Unknown
Doppler factor
Unknown
Orbital elements
Apogee altitude
446.762 km
Perigee altitude
445.36 km
Semi-major axis
6,824.198 km
Eccentricity
0.0001
Inclination
53.1556°
RAAN
288.2588°
Arg. of periapsis
233.801°
True anomaly
126.29949°
Mean anomaly
126.29°
Eccentric anomaly
126.29474°
Mean motion
3.85004 °/min
Orbital period
93.51 mins
BSTAR
0.0012154
Loading maneuver chart data...
Computing Atmospheric mass density...

Documentation

Showing up to 5 results
|